Torna al catalogo

STARLINK-35567

AttivoComunicazioniVLEO
NORAD 66472·PAYLOAD·🇺🇸 United States

Lanciato Nov 15, 2025 da Cape Canaveral Space Force Station

Loading…

Prossimi Passaggi (prossime 24 ore)

TLE

AggiornatoSource: CelesTrak SupGP

Epoca: Sep 15, 2026, 03:00 UTC

1 66472C 25262S   26258.12548611  .00034293  00000+0  12418-2 0  2589
2 66472  43.0012 306.0639 0001525 263.4314  12.6622 15.27568839    14

Traccia STARLINK-35567 in tempo reale con AllMySat

Download on the App Store